Regional Weather Roundup
Issued by NWS

Home | Current Version | Previous Version | Graphics & Text | Print | Product List | Glossary On
Versions: 1 2 3 4 5 6 7 8 9 10 11 12 13 14 15 16 17 18 19 20 21 22 23 24 25 26 27 28 29 30 31 32 33 34 35 36 37 38 39 40 41 42 43 44 45 46 47 48 49 50
081
ASUS45 KBOU 281707
RWRCO

WEATHER ROUNDUP FOR COLORADO
NATIONAL WEATHER SERVICE DENVER/BOULDER CO
1100 AM MDT SAT MAY 28 2016

NOTE: "FAIR" INDICATES FEW OR NO CLOUDS BELOW 12000 FEET WITH NO
SIGNIFICANT WEATHER AND/OR OBSTRUCTIONS TO VISIBILITY.

COZ001>005-013-030-031-281800-
...NORTHWEST COLORADO...

CITY           SKY/WX    TMP DP  RH WIND       PRES   REMARKS
CRAIG          FAIR      60  40  47 VRB3      30.11S
HAYDEN         FAIR      57  36  44 N7        30.11F
MEEKER           N/A     60  39  45 W8        30.11F
MOUNT WERNER   NOT AVBL
STEAMBOAT SPGS FAIR      56  36  48 W8        30.13S
WALDEN         PTSUNNY   54  30  40 SW12      30.17R
$$

COZ006>008-011-281800-
...WEST CENTRAL VALLEYS...

CITY           SKY/WX    TMP DP  RH WIND       PRES   REMARKS
GRAND JUNCTION FAIR      63  39  41 MISG      30.07F
MONTROSE       FAIR      64  34  32 W5        30.13S
EAGLE          SUNNY     55  37  50 CALM      30.16F
RIFLE          FAIR      62  36  37 VRB3      30.10F
DELTA          FAIR      66  34  30 N5        30.10F
NUCLA          FAIR      64  32  29 SW3       30.14F
$$

COZ017>023-064>068-281800-
...SOUTHWEST COLORADO...

CITY           SKY/WX    TMP DP  RH WIND       PRES   REMARKS
DURANGO        FAIR      63  32  31 CALM      30.14S
CORTEZ         FAIR      67  30  25 E5        30.10F
PAGOSA SPRINGS FAIR      57  29  34 S8        30.19S
TELLURIDE      FAIR      53  25  34 CALM      30.25S
WOLF CREEK PAS PTSUNNY   36  23  60 W3        30.39R
$$

COZ009-010-012-014-032>034-037-058>063-281800-
...CENTRAL COLORADO...

CITY           SKY/WX    TMP DP  RH WIND       PRES   REMARKS
ASPEN          FAIR      57  31  37 N10G16    30.17S
BUENA VISTA    FAIR      57  27  31 S7        30.16F
COPPER MTN     NOT AVBL
BERTHOUD PASS  CLOUDY    27  18  69 NW18G31   30.31R WCI  13
COTTONWOOD PAS PTSUNNY   54  21  28 N3        30.24F
GUNNISON       FAIR      52  34  50 CALM      30.22F
KREMMLING      FAIR      55  36  47 E6        30.16F
LEADVILLE      FAIR      44  28  53 W9        30.25R
MONARCH PASS   PTSUNNY   34  28  80 W14G29    30.44R WCI  24
SALIDA         FAIR      60  33  35 CALM      30.21F
SUNLIGHT       PTSUNNY   43  30  61 CALM      30.33R
WILKERSON PASS FAIR      41  30  65 SW5       30.32R
$$

COZ069>075-281800-
...SAN LUIS VALLEY/SANGRE DE CRISTO MOUNTAINS...

CITY           SKY/WX    TMP DP  RH WIND       PRES   REMARKS
ALAMOSA        FAIR      55  39  54 VRB6      30.19S
LA VETA PASS   FAIR      46  32  57 S7        30.28R
SAGUACHE       FAIR      55  34  44 S9        30.19F
$$

COZ035-036-038>040-281800-
...NORTHERN COLORADO FRONT RANGE...

CITY           SKY/WX    TMP DP  RH WIND       PRES   REMARKS
DENVER INTL AP FAIR      64  40  41 VRB7      30.04S
DMNS CITY PARK   N/A     67  33  27 E8G14     30.03S
AURORA         MOSUNNY   62  36  37 E5        30.05S
FRONT RANGE AP MOSUNNY   63  36  36 SE6       30.06S
ERIE MUNI ARPT FAIR      66  37  33 SE6       30.02S
BOULDER MUN AP FAIR      64  36  34 CALM      30.01S
CENTENNIAL     FAIR      63  31  30 VRB3      30.05F
BROOMFIELD     MOSUNNY   64  36  34 SE7       30.05S
FORT COLLINS   FAIR      63  43  48 S8        30.03S
LONGMONT       FAIR      69  40  35 E7        30.03S
$$

COZ041-046-047-076>085-087-088-281800-
...PIKES PEAK/PALMER DIVIDE AND SOUTHERN FOOTHILLS...

CITY           SKY/WX    TMP DP  RH WIND       PRES   REMARKS
COLO. SPRINGS  FAIR      63  30  28 SW8       30.10R
A. F. ACADEMY  FAIR      63  32  31 S6        30.09R
SCHRIEVER AFB  NOT AVBL
ELLICOTT       FAIR     N/A N/A N/A VRB3      30.08S
FALCON         FAIR      61  31  31 CALM      30.12S
FORT CARSON    FAIR      64  35  35 VRB5      30.07S
LIMON          FAIR      63  38  39 VRB5      30.06S
MONUMENT HILL  FAIR      55  34  44 CALM      30.13R
TRINIDAD       FAIR      68  35  29 N8        30.07F
$$

COZ042>045-048>051-090-091-281800-
...NORTHEAST COLORADO...

CITY           SKY/WX    TMP DP  RH WIND       PRES   REMARKS
GREELEY ARPT   FAIR      66  43  42 SW8       30.03S
AKRON          FAIR      62  44  51 SW7       30.02S
BURLINGTON     FAIR      65  45  48 VRB3      30.03R
WRAY           FAIR      68  46  45 W5        29.99S
STERLING       FAIR      66  50  55 CALM      29.98S
HOLYOKE        FAIR      68  46  45 SW6       29.98S
FORT MORGAN    FAIR      64  45  48 SW3       30.03R
$$

COZ086-089-092>099-281800-
...SOUTHEAST COLORADO...

CITY           SKY/WX    TMP DP  RH WIND       PRES   REMARKS
PUEBLO         FAIR      68  43  40 VRB5      30.03F
LA JUNTA       FAIR      66  46  48 SW6       30.04R
LAMAR          FAIR      69  46  43 VRB3      30.01S
SPRINGFIELD      N/A     69  44  40 MISG      30.04S
$$




USA.gov is the U.S. government's official web portal to all federal, state and local government web resources and services.